Location: Gdynia
(54.5193°N, 18.5395°E)
Time: 21:58:32
(UTC+01:00)

ISS - Pass Details

Date: 29 January 2019
Orbit: 403 x 411 km, 51.6° (Epoch: 23 February)

Event Time Altitude Azimuth Distance (km) Brightness Sun altitude
Rises 18:14:48 0° 249° (WSW) 2,333 1.6 -16.7°
Reaches altitude 10° 18:16:55 10° 244° (WSW) 1,475 0.1 -17.0°
Maximum altitude 18:20:06 45° 170° (S) 568 -3.2 -17.5°
Enters shadow 18:20:40 40° 138° (SE) 617 -3.2 -17.6°
